Location: Greenwich
(51.4790°N, 0.0090°E)
Time: 21:32:43
(UTC+01:00)

A-11 Canister half - All Passes

Search period start: 17 June 2025 00:00
Search period end: 27 June 2025 00:00
Orbit: 1515 x 1684 km, 47.2° (Epoch: 17 June)

Date Brightness Start Highest point End Pass type
(mag) Time Alt. Az. Time Alt. Az. Time Alt. Az.
17 Jun - 00:42:00 10° W 00:47:14 16° SW 00:52:23 10° SSW visible
17 Jun - 16:00:23 10° SSW 16:08:59 33° SE 16:17:26 10° E daylight
17 Jun - 18:02:58 10° WSW 18:12:49 62° SSE 18:22:21 10° E daylight
17 Jun - 20:07:27 10° W 20:17:20 69° S 20:26:48 10° ESE daylight
17 Jun - 22:12:20 10° W 22:21:27 46° SSW 22:30:15 10° SE visible
18 Jun - 00:18:40 10° W 00:24:21 18° SW 00:29:57 10° SSW visible
18 Jun - 15:37:34 10° SSW 15:46:03 32° SE 15:54:21 10° E daylight
18 Jun - 17:39:57 10° WSW 17:49:48 60° SSE 17:59:20 10° E daylight
18 Jun - 19:44:24 10° W 19:54:18 69° S 20:03:49 10° ESE daylight
18 Jun - 21:49:16 10° W 21:58:29 47° SSW 22:07:22 10° SE visible
18 Jun - 23:55:24 10° W 00:01:28 19° SW 00:07:27 10° S visible
19 Jun - 15:14:46 10° SSW 15:23:06 30° SE 15:31:16 10° E daylight
19 Jun - 17:16:57 10° SW 17:26:47 59° SSE 17:36:19 10° E daylight
19 Jun - 19:21:21 10° W 19:31:17 70° S 19:40:51 10° ESE daylight
19 Jun - 21:26:13 10° W 21:35:31 49° SSW 21:44:29 10° SE daylight
19 Jun - 23:32:09 10° W 23:38:35 20° SW 23:44:53 10° S visible
20 Jun - 14:51:59 10° S 15:00:08 29° SE 15:08:11 10° E daylight
20 Jun - 16:53:58 10° SW 17:03:46 58° SSE 17:13:19 10° E daylight
20 Jun - 18:58:18 10° W 19:08:15 70° S 19:17:51 10° ESE daylight
20 Jun - 21:03:08 10° W 21:12:32 51° SSW 21:21:35 10° SE daylight
20 Jun - 23:08:56 10° W 23:15:41 22° SW 23:22:18 10° S visible
21 Jun - 14:29:13 10° S 14:37:12 27° SE 14:45:04 10° E daylight
21 Jun - 16:30:59 10° SW 16:40:45 56° SSE 16:50:18 10° E daylight
21 Jun - 18:35:14 10° W 18:45:13 70° S 18:54:52 10° E daylight
21 Jun - 20:40:05 10° W 20:49:33 52° SSW 20:58:41 10° SE daylight
21 Jun - 22:45:44 10° W 22:52:48 23° SW 22:59:41 10° S visible
22 Jun - 14:06:28 10° S 14:14:15 26° SE 14:21:57 10° E daylight
22 Jun - 16:07:59 10° SW 16:17:45 55° SSE 16:27:16 10° E daylight
22 Jun - 18:12:11 10° W 18:22:11 70° S 18:31:52 10° E daylight
22 Jun - 20:17:00 10° W 20:26:34 54° SSW 20:35:47 10° SE daylight
22 Jun - 22:22:33 10° W 22:29:53 25° SW 22:37:02 10° S visible
23 Jun - 13:43:46 10° S 13:51:19 25° SE 13:58:48 10° E daylight
23 Jun - 15:45:01 10° SW 15:54:44 53° SSE 16:04:15 10° E daylight
23 Jun - 17:49:08 10° W 17:59:09 70° S 18:08:51 10° E daylight
23 Jun - 19:53:56 10° W 20:03:34 56° SSW 20:12:52 10° SE daylight
23 Jun - 21:59:23 10° W 22:06:58 26° SW 22:14:21 10° S visible
24 Jun - 13:21:04 10° S 13:28:23 23° SE 13:35:39 10° E daylight
24 Jun - 15:22:03 10° SW 15:31:44 52° SSE 15:41:14 10° E daylight
24 Jun - 17:26:05 10° WSW 17:36:07 70° S 17:45:52 10° E daylight
24 Jun - 19:30:53 10° W 19:40:35 57° SSW 19:49:55 10° SE daylight
24 Jun - 21:36:14 10° W 21:44:03 28° SW 21:51:39 10° S daylight
25 Jun - 12:58:25 10° S 13:05:28 22° SE 13:12:28 10° E daylight
25 Jun - 14:59:06 10° SW 15:08:44 50° SSE 15:18:11 10° E daylight
25 Jun - 17:03:01 10° WSW 17:13:05 70° S 17:22:51 10° E daylight
25 Jun - 19:07:49 10° W 19:17:34 59° SSW 19:26:59 10° SE daylight
25 Jun - 21:13:06 10° W 21:21:08 29° SW 21:28:56 10° SSE daylight
26 Jun - 12:35:47 10° S 12:42:32 20° SE 12:49:15 10° E daylight
26 Jun - 14:36:10 10° SW 14:45:43 49° SSE 14:55:09 10° E daylight
26 Jun - 16:40:00 10° WSW 16:50:02 70° S 16:59:50 10° E daylight
26 Jun - 18:44:45 10° W 18:54:34 60° SSW 19:04:02 10° ESE daylight
26 Jun - 20:49:58 10° W 20:58:12 31° SW 21:06:11 10° SSE daylight
